Bonaire, Netherlands

2:09 AM AST on March 27, 2017 (GMT -0400)
Flamingo

Weather History for TNCB - November, 2012

Change the Weather History Date:

Saturday, November 10, 2012

  Actual Average Record
Temperature  
Mean Temperature 84 °F -  
Max Temperature 87 °F 86 °F 93 °F (2006)
Min Temperature 80 °F 78 °F 77 °F (1996)
Cooling Degree Days 18    
Growing Degree Days 34 (Base 50)    
Moisture  
Dew Point 74 °F    
Average Humidity 72    
Maximum Humidity 79    
Minimum Humidity 61    
Precipitation  
Precipitation 0.00 in - - ()
Sea Level Pressure  
Sea Level Pressure 29.85 in    
Wind  
Wind Speed 6 mph ()    
Max Wind Speed 13 mph    
Max Gust Speed -    
Visibility 6.2 miles    
Events      
Averages and records for this station are not official NWS values.
T = Trace of Precipitation, MM = Missing Value Source: Averaged Metar Reports

Daily Weather History Graph

Daily Weather History Graph

Search for Another Location

Airport or City:

Trip Planner

Search our weather history database for the weather conditions in past years. The results will help you decide how hot, cold, wet, or windy it might be!

Date:

Astronomy

Nov. 10, 2012 Rise Set
Actual Time 6:28 AM AST 6:05 PM AST
Civil Twilight 6:06 AM AST 6:27 PM AST
Nautical Twilight 5:41 AM AST 6:52 PM AST
Astronomical Twilight 5:15 AM AST 7:18 PM AST
Moon 3:04 AM AST (11/10) 3:20 PM AST (11/10)
Length of Visible Light 12h 20m
Length of Day
11h 36m
Waning Crescent, 15% of the Moon is Illuminated
Nov 10
Waning Crescent
Nov 13
New
Nov 20
First Quarter
Nov 28
Full
Dec 6
Last Quarter

Hourly Weather History & Observations

Time (AST) Temp. Heat Index Dew Point Humidity Pressure Visibility Wind Dir Wind Speed Gust Speed Precip Events Conditions
12:00 AM 82.4 °F 88.2 °F 73.4 °F 74% 29.86 in - North - - N/A   Unknown
1:00 AM 82.4 °F 88.2 °F 73.4 °F 74% 29.83 in - North - - N/A   Unknown
2:00 AM 81 °F - 74 °F 74%  in - ENE 4.6 mph - -   Clear
2:00 AM 80.6 °F 85.4 °F 73.4 °F 79% 29.83 in - North - - N/A   Unknown
3:00 AM 80.6 °F 85.4 °F 73.4 °F 79% 29.80 in - North - - N/A   Unknown
4:00 AM 80.6 °F 85.4 °F 73.4 °F 79% 29.80 in - North - - N/A   Unknown
5:00 AM 81 °F - 74 °F 73%  in - ENE 4.6 mph - -   Clear
5:00 AM 80.6 °F 85.4 °F 73.4 °F 79% 29.80 in - North - - N/A   Unknown
6:00 AM 80.6 °F 85.4 °F 73.4 °F 79% 29.83 in - North - - N/A   Unknown
7:00 AM 82.4 °F 88.2 °F 73.4 °F 74% 29.86 in - North - - N/A   Unknown
8:00 AM 86 °F - 74 °F 61%  in - ENE 4.6 mph - -   Clear
8:00 AM 86.0 °F 95.1 °F 75.2 °F 70% 29.89 in - North - - N/A   Unknown
9:00 AM 86.0 °F 95.1 °F 75.2 °F 70% 29.89 in 6.2 mi East 11.5 mph - N/A   Scattered Clouds
10:00 AM 87.8 °F 97.6 °F 75.2 °F 66% 29.92 in - North - - N/A   Unknown
11:00 AM 87.8 °F 97.6 °F 75.2 °F 66% 29.89 in - North - - N/A   Unknown
12:00 PM 87.8 °F 95.6 °F 73.4 °F 62% 29.89 in 6.2 mi East 12.7 mph - N/A   Scattered Clouds
1:00 PM 87.8 °F 97.6 °F 75.2 °F 66% 29.86 in - North - - N/A   Unknown
4:00 PM 86.0 °F 93.4 °F 73.4 °F 66% 29.80 in 6.2 mi East 10.4 mph - N/A   Scattered Clouds
5:00 PM 87.8 °F 95.6 °F 73.4 °F 62% 29.80 in 6.2 mi East 11.5 mph - N/A   Scattered Clouds
6:00 PM 84.2 °F 90.9 °F 73.4 °F 70% 29.83 in - ENE 4.6 mph - N/A   Unknown
7:00 PM 82.4 °F 88.2 °F 73.4 °F 74% 29.83 in 6.2 mi East 6.9 mph - N/A   Scattered Clouds
8:00 PM 82.4 °F 88.2 °F 73.4 °F 74% 29.86 in 6.2 mi East 6.9 mph - N/A   Partly Cloudy
9:00 PM 82.4 °F 88.2 °F 73.4 °F 74% 29.89 in - ENE 4.6 mph - N/A   Unknown
10:00 PM 82.4 °F 88.2 °F 73.4 °F 74% 29.89 in - North - - N/A   Unknown
11:00 PM 82.4 °F 88.2 °F 73.4 °F 74% 29.89 in - North - - N/A   Unknown